QPF
0.00 0.00 0.00 0.00 0.00 0.00 0.00 0.00 0.00 0.00 0.00 0.00 0.00 0.00 0.00 0.00 0.00 0.00 0.00 0.01 0.01 0.00 0.00 0.00 0.00 0.00 0.00 0.00 0.00 0.00 0.00 0.00 0.00 0.00 0.00 0.00 0.00 0.00 0.00 0.00 0.00 0.00 0.00 0.00
0.00 0.00 0.00 0.00 0.00 0.00 0.00 0.00 0.00 0.00 0.00 0.00 0.00 0.00 0.00 0.00 0.00 0.00 0.00 0.00 0.00 0.00 0.00 0.00 0.00 0.00 0.00 0.00 0.00 0.00 0.00 0.00 0.00 0.00 0.00 0.00 0.00 0.00 0.00 0.00 0.00 0.00 0.00 0.00
0.00 0.00 0.00 0.00 0.00 0.00 0.00 0.00 0.00 0.00 0.00 0.00 0.00 0.00 0.00 0.00 0.00 0.00 0.00 0.00 0.00 0.00 0.00 0.00 0.00 0.00 0.00 0.00 0.00 0.00 0.00 0.00 0.00 0.00 0.00 0.00 0.00 0.00 0.00 0.00 0.00 0.00 0.00 0.00
0.00 0.00 0.00 0.00 0.00 0.00 0.00 0.00 0.00 0.00 0.00 0.00 0.00 0.01 0.00 0.00 0.00 0.00 0.00 0.00 0.00 0.00 0.00 0.00 0.00 0.00 0.00 0.00 0.00 0.00 0.00 0.00 0.00 0.00 0.00 0.00 0.00 0.00 0.00 0.00 0.00 0.00 0.00 0.00
0.00 0.00 0.00 0.00 0.00 0.00 0.00 0.00 0.00 0.00 0.00 0.00 0.00 0.01 0.04 0.00 0.00 0.00 0.00 0.00 0.00 0.00 0.00 0.00 0.00 0.00 0.00 0.00 0.00 0.00 0.00 0.00 0.00 0.00 0.00 0.00 0.00 0.00 0.00 0.00 0.00 0.00 0.00 0.00
0.00 0.00 0.00 0.00 0.00 0.00 0.00 0.00 0.00 0.00 0.00 0.00 0.00 0.01 0.02 0.00 0.00 0.00 0.00 0.00 0.00 0.00 0.00 0.00 0.00 0.00 0.00 0.00 0.00 0.00 0.00 0.00 0.00 0.00 0.00 0.00 0.00 0.00 0.00 0.00 0.00 0.00 0.00 0.00
0.00 0.00 0.00 0.00 0.00 0.00 0.00 0.00 0.00 0.00 0.00 0.00 0.00 0.00 0.02 0.00 0.00 0.00 0.00 0.00 0.00 0.00 0.00 0.00 0.00 0.00 0.00 0.00 0.00 0.00 0.00 0.00 0.00 0.00 0.00 0.00 0.00 0.00 0.00 0.00 0.00 0.00 0.00 0.00
0.00 0.00 0.00 0.00 0.00 0.00 0.00 0.00 0.00 0.00 0.00 0.00 0.00 0.00 0.00 0.00 0.00 0.00 0.00 0.00 0.00 0.00 0.00 0.00 0.00 0.00 0.00 0.00 0.00 0.00 0.00 0.00 0.00 0.00 0.00 0.00 0.00 0.00 0.00 0.00 0.00 0.00 0.00 0.00
0.00 0.00 0.00 0.00 0.00 0.00 0.00 0.00 0.00 0.00 0.00 0.00 0.00 0.00 0.00 0.00 0.00 0.00 0.00 0.00 0.00 0.00 0.00 0.00 0.00 0.00 0.00 0.00 0.00 0.00 0.00 0.00 0.00 0.00 0.00 0.00 0.00 0.00 0.00 0.00 0.00 0.00 0.00 0.00
0.00 0.00 0.00 0.00 0.00 0.00 0.00 0.00 0.00 0.00 0.00 0.00 0.00 0.00 0.01 0.00 0.00 0.00 0.00 0.00 0.00 0.00 0.00 0.00 0.00 0.00 0.00 0.00 0.00 0.00 0.00 0.00 0.00 0.00 0.00 0.00 0.00 0.00 0.00 0.00 0.00 0.00 0.00 0.00
0.00 0.00 0.00 0.00 0.00 0.00 0.00 0.00 0.00 0.00 0.00 0.00 0.00 0.02 0.00 0.00 0.00 0.00 0.00 0.00 0.00 0.00 0.00 0.00 0.00 0.00 0.00 0.00 0.00 0.00 0.00 0.00 0.00 0.00 0.00 0.00 0.00 0.00 0.00 0.00 0.00 0.00 0.00 0.00
0.00 0.00 0.00 0.00 0.00 0.00 0.00 0.00 0.00 0.00 0.00 0.00 0.00 0.00 0.00 0.00 0.00 0.00 0.00 0.00 0.00 0.00 0.00 0.00 0.00 0.00 0.00 0.00 0.00 0.00 0.00 0.00 0.00 0.00 0.00 0.00 0.00 0.00 0.00 0.00 0.00 0.00 0.00 0.00
0.00 0.00 0.00 0.00 0.00 0.00 0.00 0.00 0.00 0.00 0.00 0.00 0.00 0.00 0.00 0.00 0.00 0.00 0.00 0.00 0.00 0.00 0.00 0.00 0.00 0.00 0.00 0.00 0.00 0.00 0.00 0.00 0.00 0.00 0.00 0.00 0.00 0.00 0.00 0.00 0.00 0.00 0.00 0.00
0.00 0.00 0.00 0.00 0.00 0.00 0.00 0.00 0.00 0.00 0.00 0.00 0.00 0.00 0.00 0.00 0.00 0.00 0.00 0.00 0.00 0.00 0.00 0.00 0.00 0.00 0.00 0.00 0.00 0.00 0.00 0.00 0.00 0.00 0.00 0.00 0.00 0.00 0.00 0.00 0.00 0.00 0.00 0.00
0.00 0.00 0.00 0.00 0.00 0.00 0.00 0.00 0.00 0.00 0.00 0.00 0.00 0.00 0.00 0.00 0.00 0.00 0.00 0.00 0.00 0.00 0.00 0.00 0.00 0.00 0.00 0.00 0.00 0.00 0.00 0.00 0.00 0.00 0.00 0.00 0.00 0.00 0.00 0.00 0.00 0.00 0.00 0.00
0.00 0.00 0.00 0.00 0.00 0.00 0.00 0.00 0.00 0.00 0.00 0.00 0.00 0.00 0.00 0.00 0.00 0.00 0.00 0.00 0.00 0.00 0.00 0.00 0.00 0.00 0.00 0.00 0.00 0.00 0.00 0.00 0.00 0.00 0.00 0.00 0.00 0.00 0.00 0.00 0.00 0.00 0.00 0.00
0.00 0.00 0.00 0.00 0.00 0.00 0.00 0.00 0.00 0.00 0.00 0.00 0.00 0.00 0.00 0.00 0.00 0.00 0.00 0.00 0.00 0.00 0.00 0.00 0.00 0.00 0.00 0.00 0.00 0.00 0.00 0.00 0.00 0.00 0.00 0.00 0.00 0.00 0.00 0.00 0.00 0.00 0.00 0.00
0.00 0.00 0.00 0.00 0.00 0.00 0.00 0.00 0.00 0.00 0.00 0.00 0.00 0.00 0.00 0.00 0.00 0.00 0.00 0.00 0.00 0.00 0.00 0.00 0.00 0.00 0.00 0.00 0.00 0.00 0.00 0.00 0.00 0.00 0.00 0.00 0.00 0.00 0.00 0.00 0.00 0.00 0.00 0.00
0.00 0.00 0.00 0.00 0.00 0.00 0.00 0.00 0.00 0.00 0.00 0.00 0.00 0.00 0.00 0.00 0.00 0.00 0.00 0.00 0.00 0.00 0.00 0.00 0.00 0.00 0.00 0.00 0.00 0.00 0.00 0.00 0.00 0.00 0.00 0.00 0.00 0.00 0.00 0.00 0.00 0.00 0.00 0.00
0.00 0.00 0.00 0.00 0.00 0.00 0.00 0.00 0.00 0.00 0.00 0.00 0.00 0.00 0.00 0.00 0.00 0.00 0.00 0.00 0.00 0.00 0.00 0.00 0.00 0.00 0.00 0.00 0.00 0.00 0.00 0.00 0.00 0.00 0.00 0.00 0.00 0.00 0.00 0.00 0.00 0.00 0.00 0.00
0.00 0.00 0.00 0.00 0.00 0.00 0.00 0.00 0.00 0.00 0.00 0.00 0.00 0.00 0.00 0.00 0.00 0.00 0.00 0.00 0.00 0.00 0.00 0.00 0.00 0.00 0.00 0.00 0.00 0.00 0.00 0.00 0.00 0.00 0.00 0.00 0.00 0.00 0.00 0.00 0.00 0.00 0.00 0.00
0.00 0.00 0.00 0.00 0.00 0.00 0.00 0.00 0.00 0.00 0.00 0.00 0.00 0.00 0.00 0.00 0.00 0.00 0.00 0.00 0.00 0.00 0.00 0.00 0.00 0.00 0.00 0.00 0.00 0.00 0.00 0.00 0.00 0.00 0.00 0.00 0.00 0.00 0.00 0.00 0.00 0.00 0.00 0.00
0.00 0.00 0.00 0.00 0.00 0.00 0.00 0.00 0.00 0.00 0.00 0.00 0.00 0.00 0.00 0.00 0.00 0.00 0.00 0.00 0.00 0.00 0.00 0.00 0.00 0.00 0.00 0.00 0.00 0.00 0.00 0.00 0.00 0.00 0.00 0.00 0.00 0.00 0.00 0.00 0.00 0.00 0.00 0.00
0.00 0.00 0.00 0.00 0.00 0.00 0.00 0.00 0.00 0.00 0.00 0.00 0.00 0.00 0.00 0.00 0.00 0.00 0.00 0.00 0.00 0.00 0.00 0.00 0.00 0.00 0.00 0.00 0.00 0.00 0.00 0.00 0.00 0.00 0.00 0.00 0.00 0.00 0.00 0.00 0.00 0.00 0.00 0.00
0.00 0.00 0.00 0.00 0.00 0.00 0.00 0.00 0.00 0.00 0.00 0.00 0.00 0.00 0.00 0.00 0.00 0.00 0.00 0.00 0.00 0.00 0.00 0.00 0.00 0.00 0.00 0.00 0.00 0.00 0.00 0.00 0.00 0.00 0.00 0.00 0.00 0.00 0.00 0.00 0.00 0.00 0.00 0.00
0.00 0.00 0.00 0.00 0.00 0.00 0.00 0.00 0.00 0.00 0.00 0.00 0.00 0.00 0.00 0.00 0.00 0.00 0.00 0.00 0.00 0.00 0.00 0.00 0.00 0.00 0.00 0.00 0.00 0.00 0.00 0.00 0.00 0.00 0.00 0.00 0.00 0.00 0.00 0.00 0.00 0.00 0.00 0.00
MSLP
1004.91 1004.62 1003.56 1003.06 1002.77 1002.40 1001.45 1001.08 1001.13 1001.93 1003.92 1005.62 1009.76 1013.98 1017.30 1019.48 1021.16 1022.56 1023.77 1024.65 1025.29 1025.78 1026.16 1026.07 1025.83 1025.38 1025.19 1024.78 1024.91 1025.11 1025.27 1025.57 1025.50 1025.17 1024.99 1025.07 1024.76 1024.48 1024.20 1024.23 1024.25 1024.21 1024.26 1024.15
1004.37 1003.26 1002.87 1002.32 1001.83 1001.42 1001.28 1001.14 1001.53 1002.44 1003.81 1005.54 1008.95 1013.35 1017.01 1019.47 1021.02 1022.32 1023.52 1024.54 1025.18 1025.61 1025.73 1025.59 1025.56 1025.27 1024.94 1024.92 1025.05 1025.21 1025.49 1025.75 1025.94 1025.95 1025.54 1025.48 1025.03 1024.65 1024.46 1024.44 1024.35 1024.34 1024.17 1024.03
1003.09 1001.98 1001.62 1001.67 1001.15 1000.92 1000.90 1001.04 1001.28 1001.76 1003.34 1005.15 1008.19 1013.43 1016.66 1019.33 1021.19 1022.49 1023.44 1024.22 1024.90 1025.20 1025.19 1025.39 1025.28 1024.86 1024.66 1024.99 1025.28 1025.48 1025.73 1026.00 1026.28 1026.34 1025.98 1025.88 1025.37 1025.03 1024.88 1024.78 1024.71 1024.66 1024.29 1024.02
1002.11 1001.87 1001.13 1000.87 1000.75 1000.65 1000.69 1000.77 1001.20 1001.60 1002.96 1004.41 1007.06 1011.09 1016.00 1018.91 1020.93 1022.38 1023.35 1023.95 1024.43 1024.76 1025.14 1025.08 1024.63 1024.25 1024.60 1024.98 1025.45 1025.69 1025.87 1026.20 1026.39 1026.51 1026.45 1026.33 1026.10 1025.80 1025.51 1025.27 1025.18 1024.78 1024.53 1024.27
1001.29 1001.22 1000.90 1000.55 1000.41 1000.61 1000.60 1000.54 1000.72 1001.59 1002.40 1003.91 1005.92 1009.11 1013.66 1016.12 1018.78 1021.14 1022.55 1023.29 1023.91 1024.55 1024.67 1024.48 1024.10 1023.91 1024.37 1024.83 1025.49 1025.84 1025.96 1026.36 1026.67 1026.76 1026.74 1026.70 1026.62 1026.36 1026.02 1025.68 1025.49 1025.20 1024.78 1024.52
1001.04 1000.56 1000.58 1000.48 1000.36 1000.32 1000.56 1001.08 1001.44 1001.91 1002.45 1003.30 1005.07 1007.67 1012.02 1014.06 1015.34 1019.14 1021.61 1022.35 1023.49 1024.13 1024.38 1024.04 1023.69 1024.02 1024.61 1025.18 1025.68 1025.69 1026.01 1026.41 1026.74 1026.85 1026.89 1026.85 1026.80 1026.57 1026.33 1025.98 1025.75 1025.50 1025.04 1024.73
1000.57 1000.17 1000.20 1000.07 999.97 1000.11 1000.52 1000.84 1001.39 1001.89 1002.58 1004.75 1006.14 1007.46 1010.01 1011.74 1012.69 1016.99 1020.17 1021.70 1022.98 1023.80 1023.81 1023.45 1023.56 1024.20 1024.85 1025.43 1025.73 1025.96 1026.13 1026.49 1026.78 1026.94 1027.03 1026.97 1026.87 1026.67 1026.49 1026.25 1026.00 1025.60 1025.18 1024.89
999.95 999.69 999.55 999.62 999.64 999.97 1000.40 1000.76 1000.75 1001.27 1002.82 1003.75 1005.26 1007.86 1011.18 1012.82 1014.73 1017.63 1020.09 1021.70 1022.72 1023.14 1023.28 1023.00 1023.69 1024.27 1024.90 1025.44 1026.09 1026.55 1026.49 1026.61 1026.88 1027.08 1027.17 1027.07 1027.01 1026.84 1026.69 1026.46 1026.03 1025.66 1025.34 1025.02
998.80 998.87 999.09 999.05 999.50 999.81 1000.01 1000.31 1000.33 1001.03 1001.90 1003.02 1006.17 1009.61 1011.94 1014.09 1016.12 1018.21 1019.99 1021.46 1021.95 1022.58 1022.71 1023.00 1023.92 1024.48 1025.03 1025.57 1026.22 1026.77 1026.80 1026.83 1027.09 1027.23 1027.25 1027.13 1027.07 1026.87 1026.66 1026.37 1025.98 1025.71 1025.36 1024.90
998.48 998.21 997.86 998.48 999.54 999.36 999.25 999.71 1000.19 1000.69 1002.03 1003.45 1006.33 1008.11 1011.05 1013.83 1016.03 1017.91 1019.26 1020.40 1021.43 1021.87 1022.12 1023.13 1024.01 1024.72 1025.25 1025.71 1026.26 1026.78 1027.02 1027.08 1027.28 1027.33 1027.28 1027.19 1027.12 1026.89 1026.55 1026.28 1026.04 1025.77 1025.42 1024.95
998.28 998.21 997.66 998.10 998.55 998.85 999.09 999.38 999.67 1000.34 1002.51 1004.11 1005.13 1008.38 1009.98 1012.91 1015.09 1016.96 1018.63 1019.83 1020.63 1021.02 1022.15 1023.31 1024.05 1024.91 1025.41 1025.90 1026.42 1026.88 1027.20 1027.33 1027.45 1027.36 1027.28 1027.21 1027.20 1026.89 1026.59 1026.33 1026.14 1025.80 1025.38 1024.94
997.98 997.98 997.52 997.63 998.36 998.72 998.67 999.17 999.60 1000.19 1001.44 1003.31 1004.83 1009.05 1009.93 1012.30 1014.54 1016.35 1018.03 1019.24 1019.91 1021.02 1022.31 1023.24 1024.07 1024.90 1025.78 1026.29 1026.74 1027.02 1027.41 1027.60 1027.57 1027.42 1027.35 1027.38 1027.34 1027.07 1026.72 1026.49 1026.22 1025.78 1025.43 1024.91
997.79 998.07 997.88 997.79 998.30 998.66 998.66 998.71 998.91 1000.03 1001.45 1002.77 1004.51 1009.05 1010.85 1012.51 1014.26 1016.14 1017.55 1018.78 1020.04 1021.27 1022.52 1023.46 1024.58 1025.33 1025.84 1026.56 1027.05 1027.26 1027.62 1027.76 1027.69 1027.58 1027.52 1027.58 1027.51 1027.18 1026.82 1026.61 1026.24 1025.75 1025.41 1024.88
997.88 998.18 998.05 997.58 997.82 998.57 998.75 998.69 998.93 999.99 1001.25 1002.56 1005.41 1008.70 1011.12 1012.73 1014.40 1016.11 1017.65 1019.11 1020.33 1021.58 1022.72 1024.12 1025.19 1025.61 1026.29 1026.87 1027.26 1027.53 1027.77 1027.89 1027.86 1027.80 1027.75 1027.77 1027.60 1027.25 1027.03 1026.76 1026.29 1025.94 1025.46 1024.94
998.34 998.58 998.48 997.82 997.40 997.74 998.38 998.90 999.45 1000.06 1001.13 1002.75 1006.60 1008.66 1010.85 1012.83 1014.53 1016.28 1017.94 1019.31 1020.52 1021.83 1022.84 1024.02 1024.84 1025.82 1026.64 1027.13 1027.44 1027.74 1027.92 1028.09 1028.07 1028.04 1027.95 1027.89 1027.73 1027.44 1027.25 1026.90 1026.49 1026.12 1025.64 1025.14
998.52 998.78 998.52 998.10 997.63 997.26 998.15 998.94 999.69 1000.64 1001.88 1003.88 1006.40 1009.19 1011.31 1013.24 1015.02 1016.71 1018.11 1019.38 1020.61 1021.80 1023.10 1024.23 1025.33 1026.23 1026.95 1027.38 1027.63 1027.92 1028.09 1028.23 1028.27 1028.25 1028.15 1028.08 1027.94 1027.67 1027.51 1027.14 1026.78 1026.41 1025.83 1025.19
998.36 998.63 998.64 998.74 998.43 998.58 999.32 999.77 1000.42 1001.48 1002.49 1003.86 1006.58 1009.52 1011.71 1013.62 1015.33 1016.80 1018.13 1019.37 1020.73 1022.09 1023.53 1024.70 1025.87 1026.75 1027.26 1027.64 1027.89 1028.08 1028.21 1028.38 1028.53 1028.54 1028.44 1028.37 1028.29 1028.05 1027.85 1027.52 1027.11 1026.60 1026.00 1025.32
998.32 998.70 998.96 999.25 999.43 1000.19 1000.92 1000.75 1001.18 1002.21 1003.13 1004.20 1007.15 1009.98 1012.08 1013.88 1015.56 1016.98 1018.22 1019.58 1021.09 1022.67 1024.07 1025.37 1026.43 1027.11 1027.56 1027.89 1028.14 1028.30 1028.44 1028.66 1028.84 1028.89 1028.84 1028.78 1028.70 1028.47 1028.25 1027.90 1027.51 1027.04 1026.35 1025.71
998.23 998.54 998.99 999.65 1000.29 1001.59 1001.90 1001.88 1002.07 1002.84 1004.46 1005.85 1007.92 1010.40 1012.48 1014.27 1015.91 1017.42 1018.71 1020.26 1021.78 1023.26 1024.71 1025.87 1026.77 1027.39 1027.87 1028.19 1028.44 1028.61 1028.90 1029.07 1029.20 1029.28 1029.24 1029.24 1029.13 1028.87 1028.67 1028.33 1027.99 1027.53 1026.86 1026.24
997.85 998.22 999.18 1000.18 1000.70 1001.23 1000.93 1001.87 1002.35 1003.65 1005.72 1007.29 1008.86 1010.73 1012.51 1014.43 1015.94 1017.95 1019.50 1021.12 1022.72 1024.12 1025.34 1026.23 1027.02 1027.64 1028.17 1028.49 1028.76 1029.08 1029.31 1029.47 1029.66 1029.64 1029.61 1029.68 1029.56 1029.33 1029.20 1028.93 1028.67 1028.27 1027.66 1027.06
997.29 998.04 999.01 999.84 1000.64 1000.85 1000.92 1001.82 1002.88 1003.93 1005.80 1007.54 1009.44 1011.29 1012.96 1014.38 1016.19 1018.32 1020.29 1022.14 1023.55 1024.64 1025.69 1026.51 1027.19 1027.87 1028.35 1028.62 1028.95 1029.40 1029.69 1029.93 1030.03 1030.04 1029.99 1030.05 1029.94 1029.70 1029.71 1029.52 1029.40 1029.05 1028.53 1027.93
996.88 997.81 998.56 999.48 1000.28 1000.84 1001.22 1002.21 1003.21 1004.08 1005.39 1007.43 1009.85 1011.91 1013.60 1015.02 1017.22 1019.28 1021.17 1022.72 1023.98 1025.06 1026.04 1026.84 1027.57 1028.26 1028.63 1028.85 1029.25 1029.74 1030.01 1030.21 1030.26 1030.34 1030.29 1030.45 1030.20 1030.15 1030.20 1030.07 1029.92 1029.63 1029.13 1028.58
997.16 997.46 998.30 999.04 999.83 1000.03 1001.08 1002.49 1003.77 1004.59 1006.08 1008.39 1010.41 1012.71 1014.53 1016.15 1018.06 1019.99 1021.67 1023.13 1024.37 1025.31 1026.17 1027.02 1027.87 1028.55 1029.05 1029.43 1029.72 1030.11 1030.36 1030.41 1030.50 1030.58 1030.49 1030.56 1030.44 1030.34 1030.44 1030.44 1030.30 1030.06 1029.71 1029.36
996.97 997.60 999.00 999.58 1000.72 1001.07 1001.87 1003.29 1004.44 1005.67 1007.14 1009.15 1011.45 1013.31 1015.14 1016.86 1018.75 1020.51 1022.09 1023.36 1024.43 1025.46 1026.29 1027.28 1028.12 1028.82 1029.41 1029.81 1030.15 1030.39 1030.53 1030.44 1030.48 1030.60 1030.49 1030.50 1030.52 1030.34 1030.26 1030.46 1030.47 1030.33 1030.15 1030.06
997.19 997.89 999.29 1000.29 1001.52 1002.43 1003.15 1004.03 1004.99 1006.71 1008.41 1010.45 1012.42 1014.03 1015.68 1017.35 1019.31 1020.63 1022.14 1023.33 1024.53 1025.50 1026.59 1027.51 1028.37 1029.17 1029.87 1030.26 1030.53 1030.59 1030.54 1030.32 1030.37 1030.70 1030.86 1030.70 1030.66 1030.62 1030.54 1030.55 1030.72 1030.62 1030.36 1030.56
997.42 998.51 999.36 1000.59 1001.89 1002.50 1003.53 1004.67 1005.94 1007.27 1009.17 1011.09 1012.72 1014.77 1016.62 1017.77 1019.23 1020.95 1022.25 1023.49 1024.60 1025.79 1026.74 1027.87 1029.21 1030.03 1030.32 1030.45 1030.69 1030.67 1030.78 1030.80 1030.69 1030.89 1031.09 1031.28 1031.05 1030.97 1030.85 1030.80 1030.77 1030.70 1030.49 1030.52
Thickness
5739 5726 5728 5742 5750 5754 5761 5764 5761 5762 5754 5742 5696 5669 5651 5642 5629 5619 5610 5600 5593 5584 5577 5572 5570 5566 5561 5559 5549 5540 5530 5518 5509 5501 5492 5478 5467 5457 5448 5436 5425 5415 5403 5392
5724 5724 5748 5758 5762 5759 5757 5752 5751 5750 5751 5742 5710 5677 5652 5635 5628 5620 5610 5598 5589 5581 5576 5573 5567 5562 5558 5550 5541 5532 5521 5510 5496 5485 5475 5463 5454 5445 5435 5423 5411 5400 5389 5379
5720 5744 5759 5752 5754 5750 5750 5745 5749 5752 5741 5742 5710 5656 5640 5633 5623 5614 5607 5598 5587 5580 5576 5568 5561 5558 5555 5543 5532 5523 5511 5499 5485 5472 5462 5450 5442 5432 5421 5408 5396 5384 5375 5367
5731 5751 5750 5747 5746 5752 5732 5761 5755 5753 5731 5710 5719 5669 5635 5619 5612 5607 5600 5594 5586 5580 5570 5564 5561 5559 5549 5538 5526 5514 5503 5489 5475 5462 5450 5438 5428 5416 5404 5392 5380 5372 5363 5356
5728 5734 5737 5734 5744 5753 5740 5762 5757 5750 5739 5729 5715 5690 5651 5638 5622 5608 5599 5595 5587 5576 5569 5563 5560 5556 5545 5532 5518 5505 5493 5479 5465 5452 5440 5427 5413 5400 5389 5380 5369 5361 5354 5348
5733 5756 5744 5742 5752 5754 5759 5745 5745 5743 5738 5709 5721 5701 5649 5652 5659 5624 5602 5598 5583 5573 5565 5562 5561 5551 5537 5523 5510 5500 5486 5471 5456 5444 5430 5417 5402 5389 5379 5369 5360 5353 5348 5343
5725 5731 5745 5752 5738 5750 5745 5732 5703 5699 5701 5684 5708 5694 5671 5681 5688 5640 5609 5596 5582 5569 5565 5564 5557 5543 5529 5515 5503 5490 5477 5462 5449 5435 5421 5407 5393 5380 5369 5360 5353 5348 5344 5339
5703 5699 5734 5750 5740 5729 5732 5731 5713 5690 5683 5702 5719 5676 5656 5669 5659 5631 5608 5592 5579 5572 5566 5564 5551 5538 5524 5511 5494 5478 5467 5456 5443 5428 5412 5398 5384 5372 5361 5354 5349 5345 5340 5334
5714 5712 5745 5750 5749 5746 5731 5720 5752 5725 5732 5722 5683 5666 5660 5651 5634 5616 5602 5589 5584 5574 5568 5560 5544 5531 5518 5504 5488 5471 5460 5450 5436 5420 5405 5391 5377 5366 5358 5352 5348 5343 5337 5331
5731 5715 5749 5748 5745 5749 5745 5754 5720 5729 5694 5686 5674 5671 5646 5640 5626 5614 5606 5596 5584 5577 5571 5554 5539 5524 5512 5498 5482 5466 5455 5444 5429 5414 5399 5385 5372 5364 5358 5352 5347 5340 5334 5329
5737 5728 5738 5745 5727 5725 5733 5729 5739 5740 5709 5677 5686 5655 5676 5649 5635 5618 5607 5596 5586 5582 5565 5548 5535 5519 5507 5492 5477 5462 5450 5438 5424 5410 5395 5381 5369 5363 5358 5352 5345 5338 5332 5327
5736 5729 5720 5730 5745 5751 5749 5735 5738 5715 5710 5705 5702 5647 5680 5655 5638 5623 5607 5597 5591 5578 5560 5547 5533 5517 5499 5484 5470 5459 5446 5433 5420 5406 5392 5377 5368 5362 5357 5350 5343 5337 5331 5327
5733 5715 5704 5716 5731 5739 5729 5743 5749 5738 5724 5707 5698 5644 5667 5654 5638 5623 5609 5599 5586 5572 5556 5542 5525 5510 5496 5479 5464 5455 5441 5429 5417 5403 5388 5375 5367 5362 5357 5349 5343 5337 5331 5327
5729 5716 5712 5709 5717 5727 5716 5733 5744 5733 5708 5710 5682 5655 5649 5643 5630 5619 5607 5593 5580 5566 5552 5533 5517 5505 5490 5474 5461 5450 5438 5426 5414 5400 5385 5373 5368 5363 5355 5348 5343 5336 5331 5327
5717 5698 5715 5731 5744 5739 5730 5727 5730 5725 5723 5700 5666 5656 5650 5639 5628 5616 5603 5589 5576 5561 5550 5534 5519 5501 5483 5469 5458 5447 5436 5424 5411 5397 5384 5373 5367 5362 5354 5348 5342 5335 5330 5324
5717 5698 5717 5717 5740 5746 5730 5731 5728 5720 5712 5694 5676 5653 5652 5640 5627 5610 5598 5587 5573 5561 5546 5530 5512 5495 5478 5465 5456 5445 5434 5422 5410 5396 5383 5373 5366 5361 5353 5348 5341 5334 5329 5325
5707 5704 5704 5696 5727 5724 5701 5712 5712 5709 5711 5695 5663 5653 5646 5630 5618 5607 5596 5586 5572 5558 5541 5524 5506 5488 5473 5463 5454 5443 5433 5421 5408 5396 5383 5372 5365 5359 5352 5346 5340 5335 5331 5328
5701 5702 5706 5694 5706 5663 5696 5721 5718 5704 5704 5702 5675 5653 5641 5629 5619 5608 5599 5584 5569 5553 5535 5517 5499 5483 5470 5461 5452 5442 5432 5420 5408 5395 5382 5371 5362 5356 5350 5345 5339 5334 5332 5327
5714 5707 5695 5672 5680 5680 5687 5699 5699 5691 5680 5685 5666 5651 5638 5628 5616 5602 5595 5580 5564 5547 5529 5512 5496 5480 5467 5459 5451 5441 5430 5419 5407 5395 5383 5372 5362 5355 5348 5343 5338 5333 5330 5325
5715 5717 5695 5682 5664 5654 5696 5705 5714 5700 5655 5672 5661 5646 5636 5624 5604 5593 5586 5572 5555 5539 5523 5509 5494 5478 5465 5458 5449 5439 5428 5418 5406 5395 5385 5373 5363 5355 5347 5340 5334 5328 5324 5320
5695 5697 5686 5682 5673 5686 5709 5709 5707 5664 5662 5670 5658 5644 5633 5622 5613 5596 5580 5562 5548 5535 5520 5508 5493 5477 5465 5458 5450 5438 5428 5416 5406 5396 5386 5374 5365 5357 5348 5340 5332 5327 5322 5317
5691 5684 5687 5692 5674 5660 5712 5702 5679 5687 5685 5672 5655 5641 5630 5622 5604 5588 5571 5557 5544 5530 5518 5505 5490 5476 5465 5459 5449 5438 5428 5418 5408 5397 5387 5376 5368 5359 5349 5341 5333 5327 5322 5317
5686 5705 5699 5702 5696 5713 5712 5699 5696 5692 5679 5663 5650 5635 5622 5610 5596 5581 5566 5553 5540 5529 5517 5504 5489 5476 5465 5456 5448 5437 5428 5419 5409 5399 5390 5380 5371 5363 5353 5344 5336 5329 5323 5317
5706 5715 5692 5698 5699 5703 5703 5697 5691 5684 5672 5659 5643 5630 5617 5603 5590 5576 5563 5551 5540 5528 5517 5503 5489 5476 5465 5456 5446 5437 5428 5420 5412 5403 5395 5386 5376 5369 5360 5350 5341 5333 5326 5316
5706 5711 5694 5690 5692 5691 5691 5689 5684 5673 5663 5647 5635 5624 5612 5599 5584 5575 5562 5552 5540 5528 5515 5504 5490 5476 5463 5454 5445 5438 5431 5425 5417 5406 5396 5388 5380 5372 5364 5355 5344 5336 5328 5317
5709 5697 5689 5682 5688 5688 5684 5684 5678 5666 5652 5641 5630 5616 5604 5596 5585 5572 5562 5551 5540 5526 5516 5502 5483 5468 5460 5455 5446 5439 5431 5424 5417 5407 5397 5387 5381 5374 5367 5358 5349 5341 5332 5322